Location: Anteren
(48.6019°N, 4.4471°W)
Time: 18:51:25
(UTC+00:00)

Daily predictions for brighter satellites

Satellite Brightness Start Highest point End
(mag) Time Altitude Azimuth Time Altitude Azimuth Time Altitude Azimuth
Meteor 2-12 Rocket 4.5 18:30:50 10° S 18:36:49 66° E 18:42:53 10° NNE
USA 308 3.7 18:37:37 10° WNW 18:41:43 42° N 18:45:48 10° E
Cosmos 1666 3.4 18:38:47 10° SSE 18:42:06 31° E 18:45:26 10° NNE
Cosmos 1703 Rocket 3.7 18:38:28 10° N 18:42:46 50° ENE 18:46:59 10° SSE
Cosmos 2322 4.1 18:39:26 10° S 18:44:48 43° ESE 18:50:11 10° NE
CZ-2C R/B 3.8 18:39:34 10° S 18:45:10 65° WSW 18:50:31 10° NNW
CSL-04 Rocket 4.0 18:40:56 10° SE 18:46:11 46° ENE 18:51:22 10° N
Cosmos 1844 Rocket 3.0 18:40:45 10° NNW 18:46:19 72° WSW 18:51:52 10° SSE
Okean-O 2.6 18:44:48 10° SSE 18:49:12 69° ENE 18:53:37 10° N
Cosmos 1933 Rocket 3.5 18:46:16 10° S 18:50:36 69° E 18:54:59 10° NNE
Cosmos 1777 Rocket 4.0 18:45:45 10° NNW 18:50:59 62° ENE 18:56:08 10° SE
H-2A R/B 2.2 18:47:48 10° SSE 18:53:16 87° ENE 18:58:43 10° NNW
CSL-04 Debris 4.3 18:48:27 10° SE 18:53:44 55° ENE 18:59:06 10° N
SJ-6B 4.3 18:53:27 10° ESE 18:56:21 19° ENE 18:59:13 10° NNE
Ariane Rocket 4.2 18:56:13 10° ESE 19:00:08 23° ENE 19:04:02 10° N
USA 186 3.0 18:59:36 13° E 19:00:32 15° ENE 19:02:12 10° NNE
Cosmos 1500 3.4 18:57:51 10° SSW 19:01:34 74° W 19:05:20 10° N
OBJECT-B 2.6 19:02:10 13° E 19:03:14 15° ENE 19:05:05 10° NNE
Meteor 1-11 Rocket 4.1 19:00:38 10° SSE 19:05:54 42° E 19:11:06 10° NNE
SJ-11-01 4.4 19:01:27 10° SSE 19:06:08 84° WSW 19:10:53 10° NNW
Okean 1-7 3.0 19:02:33 10° N 19:06:56 84° E 19:11:15 10° S
Meteor 1-14 Rocket 4.4 19:01:51 10° SSW 19:07:23 78° WNW 19:12:58 10° N
PSLV R/B 3.8 19:03:55 10° NNE 19:08:01 74° ESE 19:12:03 10° S
Cosmos 2360 Rocket 2.6 19:03:23 10° SW 19:09:00 69° WNW 19:14:42 10° NNE
YAOGAN 1 2.9 19:05:48 10° S 19:10:07 71° WSW 19:14:28 10° NNW
FALCON 9 DEB 2.9 19:08:15 10° WNW 19:11:27 77° NNE 19:13:45 17° ESE
Cosmos 1943 Rocket 4.1 19:09:31 10° N 19:12:22 14° NNE 19:15:13 10° ENE
SAR-Lupe-4 3.5 19:08:51 10° NNE 19:12:24 59° ESE 19:15:57 10° S
Meteor 1-13 Rocket 4.3 19:08:13 10° N 19:14:10 70° ENE 19:19:58 10° SSE
SJ 16-02 1.8 19:11:17 10° N 19:15:28 40° ENE 19:19:18 12° SE
Cosmos 2341 Rocket 4.0 19:09:19 10° S 19:15:36 81° E 19:21:53 10° N
Cosmos 2333 4.2 19:10:00 10° SSW 19:15:39 80° ESE 19:21:25 10° NNE
Cosmos 1727 Rocket 4.3 19:10:13 10° N 19:16:07 44° ENE 19:22:01 10° SE
Cosmos 2237 Rocket 3.3 19:12:31 10° SSE 19:16:37 21° E 19:20:44 10° NE
Cosmos 2278 Rocket 2.6 19:11:57 10° NNW 19:17:24 45° NE 19:22:11 13° ESE
Cosmos 1544 4.4 19:15:26 10° SE 19:18:10 20° E 19:20:55 10° NE
FALCON 9 DEB 2.8 19:16:08 10° WNW 19:19:20 87° SSW 19:21:22 20° ESE
SL-4 R/B 2.7 19:16:36 10° WNW 19:19:56 39° SSW 19:22:57 11° SE
COSMO-SKYMED 1 4.3 19:16:06 10° N 19:20:06 36° WNW 19:24:04 10° SW
Okean 3 3.5 19:15:55 10° N 19:20:09 59° ENE 19:24:23 10° SSE
Cosmos 1536 3.2 19:16:40 10° SSE 19:20:24 41° E 19:24:10 10° NNE
DMSP B5D1-3 4.5 19:16:13 10° NNE 19:21:25 81° ESE 19:26:35 10° SSW
Meteor 1-5 Rocket 4.2 19:17:40 10° SSW 19:23:05 85° WNW 19:28:45 10° N
Cosmos 2242 Rocket 4.4 19:20:33 10° NNW 19:24:57 55° W 19:29:16 10° S
SeaSat 1 2.9 19:20:31 10° NE 19:25:10 39° ESE 19:29:47 10° S
Abrixas rocket 2.7 19:23:20 10° W 19:25:37 34° SSW 19:26:46 21° SSE
Cosmos 2218 Rocket 4.0 19:19:58 10° S 19:26:17 65° E 19:32:36 10° NNE
Cosmos 864 Rocket 4.4 19:24:09 10° S 19:30:13 65° E 19:36:25 10° NNE
MetOp-A 4.2 19:25:23 10° SSE 19:30:37 58° ENE 19:35:53 10° N
Resurs 01 Rocket 3.1 19:31:41 18° ENE 19:32:11 18° ENE 19:35:12 10° NNE
SME Rocket 4.3 19:25:35 10° NNE 19:32:19 39° E 19:36:58 10° SSE
SAR-Lupe-1 4.2 19:29:14 10° N 19:32:50 76° WNW 19:36:25 10° SSW
Gbstr 26 Del rocket 3.4 19:30:18 10° WNW 19:34:52 74° NNE 19:38:19 23° E
Cosmos 1959 Rocket 4.4 19:29:22 10° S 19:35:25 73° E 19:41:33 10° NNE
Helios 1A Rocket 3.4 19:31:53 10° S 19:35:54 63° WSW 19:39:54 10° NNW
Cosmos 2333 Rocket 2.2 19:30:54 10° SSW 19:36:36 89° WNW 19:42:23 10° NNE
USA 234 4.1 19:33:09 18° E 19:36:44 28° SE 19:42:12 10° S
Lacrosse 4 Rocket 1.6 19:33:46 10° SW 19:38:11 79° NW 19:42:43 10° NNE
GP-B 3.7 19:35:04 10° S 19:39:27 61° W 19:43:52 10° N
ERBS 4.4 19:38:15 10° NW 19:40:41 19° N 19:42:16 14° NE
CZ-4B R/B 4.5 19:40:31 10° NNW 19:42:30 16° WNW 19:44:30 10° WSW
USA 238 DEB 3.9 19:36:34 10° S 19:42:42 44° ESE 19:49:07 10° NE
USA 238 3.9 19:36:41 10° S 19:42:49 44° ESE 19:49:13 10° NE
Cosmos 2322 Rocket 4.2 19:38:24 10° WSW 19:43:09 27° NW 19:47:56 10° NNE
ARGOS 4.1 19:40:05 10° S 19:45:21 52° W 19:50:41 10° NNW
CZ-4 R/B 3.8 19:42:20 10° SSW 19:45:33 24° W 19:48:50 10° NW
Cosmos 1869 Rocket 3.7 19:41:36 10° SSW 19:45:58 76° WNW 19:50:24 10° N
Resurs 1-3 4.2 19:45:28 29° ESE 19:46:44 36° ENE 19:50:46 10° N
Cosmos 1689 Rocket 3.8 19:44:54 10° N 19:47:34 34° WNW 19:50:13 10° SW
FALCON 9 DEB 3.4 19:44:51 10° WNW 19:47:56 51° SSW 19:48:55 34° SSE
ERS-2 3.2 19:45:09 10° N 19:48:42 48° WNW 19:52:13 10° SW
IRS-1A Rocket 4.3 19:46:16 15° SE 19:50:54 59° ENE 19:56:20 10° N
Cosmos 2219 Rocket 2.3 19:47:14 10° SSW 19:52:49 78° WNW 19:58:28 10° NNE
Cosmos 1378 3.2 19:49:39 10° NNW 19:53:23 75° W 19:57:04 10° S
CREW DRAGON DEMO-1 DEB 2.6 19:52:36 10° WSW 19:55:13 64° S 19:55:13 64° S
Cosmos 1238 Rocket 2.4 19:51:48 10° S 19:55:50 78° E 19:59:15 10° NNE
CZ-2C R/B 2.9 19:50:32 10° N 19:55:59 72° WNW 20:01:16 10° SSW
USA 305 2.9 19:53:08 10° WNW 19:57:26 75° NNE 19:58:46 42° E
FALCON 9 DEB 3.4 19:54:23 10° WNW 19:57:30 51° SSW 19:58:05 43° S
Cosmos 1980 3.9 19:55:38 10° S 20:00:59 46° ESE 20:06:22 10° NE
Cosmos 1733 Rocket 3.0 19:58:55 10° S 20:03:09 56° E 20:07:27 10° NNE
COSMOS 2428 2.9 20:02:14 10° SW 20:07:54 72° WNW 20:13:38 10° NNE
USA 307 2.8 20:06:56 10° WNW 20:11:14 84° NNE 20:12:00 59° ESE
NOSS 3-2 (A) 3.2 20:05:45 10° SSW 20:11:22 75° SE 20:17:54 10° NE
USA 306 2.8 20:08:10 10° WNW 20:12:28 87° NNE 20:13:13 60° ESE
ATLAS CENTAUR R/B 3.9 20:11:50 10° WNW 20:14:06 15° NNW 20:16:24 10° N
Cosmos 1743 2.6 20:11:53 10° S 20:15:46 86° E 20:19:41 10° N
Cosmos 2369 Rocket 3.7 20:13:25 10° N 20:17:26 20° NE 20:18:00 19° NE
Cosmos 1898 Rocket 3.4 20:12:47 10° NNW 20:18:02 70° ENE 20:19:30 46° SE
NOSS 0 Rocket 3.8 20:15:06 10° SSW 20:21:14 78° ESE 20:27:25 10° NNE
USA 308 2.7 20:17:45 10° WNW 20:22:02 86° SSW 20:22:24 74° SE
CENTAUR R/B 2.4 20:17:00 10° SSW 20:22:48 63° ESE 20:29:46 10° NE
ASTEX 1 3.8 20:25:48 10° N 20:30:38 61° W 20:35:26 10° SSW
SJ-6B 3.8 20:28:21 22° SSW 20:30:42 46° W 20:34:35 10° NNW
USA 186 3.9 20:31:10 19° W 20:31:13 19° W 20:33:12 10° NW
Cosmos 1674 Rocket 3.4 20:27:47 10° N 20:32:08 88° W 20:32:23 79° S
Landsat 7 4.4 20:34:35 42° NE 20:34:35 42° NE 20:38:20 10° N
OBJECT-B 2.1 20:35:13 38° W 20:35:13 38° W 20:38:14 10° NNW
ARIANE 5 R/B 4.3 20:39:17 23° NNE 20:39:17 23° NNE 20:41:27 10° N
Cosmos 990 Rocket 4.1 20:33:04 10° NNW 20:38:15 71° WSW 20:39:46 45° S
Ariane Rocket 3.4 20:35:45 25° S 20:38:41 61° WSW 20:43:45 10° NNW
ATLAS 5 CENTAUR R/B 4.2 20:36:00 10° WNW 20:39:06 15° NNW 20:40:39 12° N
Okean 2 4.4 20:38:17 10° N 20:40:55 38° N 20:40:55 38° N
Cosmos 1763 Rocket 3.4 20:37:39 10° SSW 20:42:58 79° ESE 20:48:17 10° NNE
Cosmos 2297 3.8 20:38:53 10° NNW 20:44:32 55° NE 20:44:36 55° ENE
MetOp-B 4.2 20:45:40 60° NE 20:45:40 60° NE 20:50:42 10° N
Cosmos 1378 Rocket 3.7 20:42:07 10° NNW 20:46:26 75° WNW 20:46:26 75° WNW
NOSS 3-2 (C) 3.2 20:47:30 10° SW 20:53:09 84° SE 20:55:56 36° NE
SJ 16-02 3.4 20:50:16 10° NW 20:53:50 24° W 20:56:21 15° SW
Cosmos 468 Rocket 4.0 20:49:28 10° SSW 20:54:48 81° WNW 21:00:07 10° NNE
Cosmos 1943 Rocket 2.7 20:52:04 10° NNW 20:56:57 47° NNE 20:56:57 47° NNE
Cosmos 858 Rocket 4.5 20:53:54 10° NNW 20:59:01 79° W 20:59:01 79° W
Cosmos 2237 Rocket 2.3 20:54:24 10° SW 21:00:05 72° WNW 21:05:49 10° NNE
Cosmos 2278 Rocket 3.5 20:56:17 10° NW 21:01:22 35° WSW 21:04:05 23° SSW
Cosmos 1535 Rocket 4.4 21:01:00 73° SE 21:01:23 76° E 21:07:46 10° NNE
Cosmos 1821 Rocket 4.4 20:55:19 10° SSW 21:01:27 61° WNW 21:07:33 10° N
SeaSat 1 3.8 20:58:06 10° NNE 21:02:39 38° NW 21:07:11 10° WSW
Meteor 1-21 4.2 20:59:19 10° NNW 21:05:04 80° W 21:05:27 75° SW
SPOT 3 Rocket 3.7 21:05:03 69° WSW 21:05:13 70° WSW 21:10:28 10° NNW
Resurs 01 Rocket 2.5 21:09:15 47° NW 21:09:15 47° NW 21:12:39 10° NNW
USA 245 4.4 21:12:27 73° NNE 21:12:27 73° NNE 21:18:19 10° N
SPOT 1/Viking Rocket 4.2 21:14:33 48° N 21:14:33 48° N 21:18:18 10° NNW
Cosmos 1934 Rocket 3.9 21:14:32 74° SW 21:15:04 81° W 21:21:16 10° N
Lacrosse 4 Rocket 4.3 21:14:41 10° WNW 21:17:38 17° NW 21:20:36 10° N
USA 234 3.1 21:20:31 82° S 21:20:31 82° S 21:26:56 10° SW
Cosmos 1937 Rocket 4.2 21:15:23 10° NNW 21:20:01 50° W 21:20:01 50° W
Gbstr 26 Del rocket 4.4 21:16:58 10° WNW 21:20:51 42° WSW 21:20:51 42° WSW
Cosmos 2123 Rocket 4.3 21:18:45 10° NNW 21:24:54 61° W 21:25:45 55° SW
USA 238 DEB 4.3 21:27:07 10° WSW 21:33:35 53° NW 21:40:24 10° NE
USA 238 4.3 21:27:13 10° WSW 21:33:41 53° NW 21:40:31 10° NE
Terra 4.0 21:39:46 19° N 21:39:46 19° N 21:41:08 10° N
Cosmos 2369 Rocket 3.6 21:56:43 10° NNW 21:59:47 34° NNW 21:59:47 34° NNW
CENTAUR R/B 3.7 22:07:57 10° W 22:13:54 42° NNW 22:20:57 10° NE
USA 281 4.4 22:40:59 37° NNW 22:40:59 37° NNW 22:44:47 10° NNW
Cosmos 1943 Rocket 4.3 22:36:12 10° NW 22:38:29 21° WNW 22:38:29 21° WNW
